Plot Title: Harvard GSD,,,
#,Date Time,Wind Speed (m/s),Gust Speed (m/s)
1,8/1/2009 0:00,1.1,2
2,8/1/2009 0:05,1.3,2.4
3,8/1/2009 0:10,1.5,2.6
4,8/1/2009 0:15,1.7,3.5
5,8/1/2009 0:20,1.1,2.6
6,8/1/2009 0:25,1.7,2.8
7,8/1/2009 0:30,2.2,3.9
8,8/1/2009 0:35,1.9,3.3
9,8/1/2009 0:40,1.7,3
10,8/1/2009 0:45,1.3,3.5
11,8/1/2009 0:50,1.9,4.8
12,8/1/2009 0:55,2.2,3.9
13,8/1/2009 1:00,2.6,4.1
14,8/1/2009 1:05,1.9,4.3
15,8/1/2009 1:10,1.5,3.7
16,8/1/2009 1:15,1.7,3.9
17,8/1/2009 1:20,1.7,3.2
18,8/1/2009 1:25,2.6,3.9
19,8/1/2009 1:30,2.6,3.9
20,8/1/2009 1:35,3.2,4.8
21,8/1/2009 1:40,2.8,3.9
22,8/1/2009 1:45,2.6,3.9
23,8/1/2009 1:50,1.9,3.3
24,8/1/2009 1:55,2.2,3.7
25,8/1/2009 2:00,1.9,2.8
26,8/1/2009 2:05,2.2,3.5
27,8/1/2009 2:10,2,3.3
28,8/1/2009 2:15,2,3
29,8/1/2009 2:20,1.3,3
30,8/1/2009 2:25,0.9,2
31,8/1/2009 2:30,0.7,1.7
32,8/1/2009 2:35,0.7,2
33,8/1/2009 2:40,1.1,2.4
34,8/1/2009 2:45,1.3,2.6
35,8/1/2009 2:50,1.7,3
36,8/1/2009 2:55,1.3,2.2
37,8/1/2009 3:00,0.6,1.5
38,8/1/2009 3:05,0.4,1.1
39,8/1/2009 3:10,0.9,2
40,8/1/2009 3:15,0.7,1.9
41,8/1/2009 3:20,0.7,2
42,8/1/2009 3:25,0.9,2.4
43,8/1/2009 3:30,1.7,3.3
44,8/1/2009 3:35,2.2,3.5
45,8/1/2009 3:40,2.2,3.3
46,8/1/2009 3:45,2,3.5
47,8/1/2009 3:50,2.6,3.7
48,8/1/2009 3:55,1.9,4.1
49,8/1/2009 4:00,2.2,3.9
50,8/1/2009 4:05,2.4,3.9
51,8/1/2009 4:10,2.2,3.7
52,8/1/2009 4:15,3,4.5
53,8/1/2009 4:20,3,4.1
54,8/1/2009 4:25,3,4.6
55,8/1/2009 4:30,2.2,3.9
56,8/1/2009 4:35,2,3.9
57,8/1/2009 4:40,1.7,3
58,8/1/2009 4:45,1.9,3.2
59,8/1/2009 4:50,2,3.5
60,8/1/2009 4:55,1.9,3.3
61,8/1/2009 5:00,1.9,3.7
62,8/1/2009 5:05,2.2,4.1
63,8/1/2009 5:10,1.7,3.9
64,8/1/2009 5:15,2.4,4.5
65,8/1/2009 5:20,2.4,3.7
66,8/1/2009 5:25,2.2,3.7
67,8/1/2009 5:30,2.2,3.3
68,8/1/2009 5:35,2.2,3.3
69,8/1/2009 5:40,2.2,3.5
70,8/1/2009 5:45,2.8,4.5
71,8/1/2009 5:50,2.8,4.1
72,8/1/2009 5:55,2.2,3.5
73,8/1/2009 6:00,2.2,3.9
74,8/1/2009 6:05,2.8,4.5
75,8/1/2009 6:10,3.2,4.5
76,8/1/2009 6:15,2.6,4.3
77,8/1/2009 6:20,2.2,3.2
78,8/1/2009 6:25,2.4,4.3
79,8/1/2009 6:30,1.9,3.5
80,8/1/2009 6:35,1.7,3
81,8/1/2009 6:40,1.7,3
82,8/1/2009 6:45,1.5,2.6
83,8/1/2009 6:50,2,3.3
84,8/1/2009 6:55,2,3.3
85,8/1/2009 7:00,1.9,3.2
86,8/1/2009 7:05,2.2,5
87,8/1/2009 7:10,2.8,4.8
88,8/1/2009 7:15,2.6,4.3
89,8/1/2009 7:20,2.2,3.7
90,8/1/2009 7:25,2,3.5
91,8/1/2009 7:30,1.9,3.2
92,8/1/2009 7:35,1.7,2.6
93,8/1/2009 7:40,1.3,2.8
94,8/1/2009 7:45,0.9,2.4
95,8/1/2009 7:50,1.3,2.4
96,8/1/2009 7:55,1.5,3.2
97,8/1/2009 8:00,1.1,2.6
98,8/1/2009 8:05,1.1,2
99,8/1/2009 8:10,0.9,2
100,8/1/2009 8:15,0.9,2.2
101,8/1/2009 8:20,1.5,2.8
102,8/1/2009 8:25,1.7,3.5
103,8/1/2009 8:30,1.9,3.2
104,8/1/2009 8:35,2,3.9
105,8/1/2009 8:40,2.2,3.3
106,8/1/2009 8:45,1.7,3.7
107,8/1/2009 8:50,1.9,3
108,8/1/2009 8:55,1.5,2.8
109,8/1/2009 9:00,1.5,3
110,8/1/2009 9:05,1.7,2.8
111,8/1/2009 9:10,1.5,2.6
112,8/1/2009 9:15,1.3,2.6
113,8/1/2009 9:20,1.7,2.8
114,8/1/2009 9:25,0.7,1.9
115,8/1/2009 9:30,2,3.9
116,8/1/2009 9:35,1.5,2.6
117,8/1/2009 9:40,1.3,2.8
118,8/1/2009 9:45,1.7,3.7
119,8/1/2009 9:50,0.9,2.2
120,8/1/2009 9:55,0.6,1.9
121,8/1/2009 10:00,0.7,1.9
122,8/1/2009 10:05,1.1,2.6
123,8/1/2009 10:10,0.7,1.3
124,8/1/2009 10:15,0.2,0.7
125,8/1/2009 10:20,0.2,0.9
126,8/1/2009 10:25,0.4,1.3
127,8/1/2009 10:30,0.4,1.1
128,8/1/2009 10:35,0.6,1.1
129,8/1/2009 10:40,0.9,2.4
130,8/1/2009 10:45,0.6,1.9
131,8/1/2009 10:50,0.9,2.2
132,8/1/2009 10:55,1.3,3.2
133,8/1/2009 11:00,0.7,1.9
134,8/1/2009 11:05,1.3,2.6
135,8/1/2009 11:10,1.1,2.2
136,8/1/2009 11:15,1.9,3
137,8/1/2009 11:20,0.9,2
138,8/1/2009 11:25,1.5,3.2
139,8/1/2009 11:30,1.5,3
140,8/1/2009 11:35,0.7,1.9
141,8/1/2009 11:40,0.9,1.9
142,8/1/2009 11:45,0.9,2.8
143,8/1/2009 11:50,1.7,3.5
144,8/1/2009 11:55,1.7,3.9
145,8/1/2009 12:00,1.3,3
146,8/1/2009 12:05,0.7,2.4
147,8/1/2009 12:10,1.1,3
148,8/1/2009 12:15,0.9,2.6
149,8/1/2009 12:20,0.9,2
150,8/1/2009 12:25,1.1,2.2
151,8/1/2009 12:30,1.7,3.5
152,8/1/2009 12:35,1.9,3.3
153,8/1/2009 12:40,1.5,3
154,8/1/2009 12:45,1.3,2.8
155,8/1/2009 12:50,0.9,2.2
156,8/1/2009 12:55,0.9,2.4
157,8/1/2009 13:00,1.5,3.9
158,8/1/2009 13:05,1.1,2.6
159,8/1/2009 13:10,0.9,2.4
160,8/1/2009 13:15,1.3,3.7
161,8/1/2009 13:20,0.9,2
162,8/1/2009 13:25,1.1,2.8
163,8/1/2009 13:30,1.5,3.2
164,8/1/2009 13:35,1.7,4.3
165,8/1/2009 13:40,0.9,2
166,8/1/2009 13:45,0.9,1.9
167,8/1/2009 13:50,1.3,3.9
168,8/1/2009 13:55,1.9,4.1
169,8/1/2009 14:00,1.9,3.3
170,8/1/2009 14:05,1.9,4.1
171,8/1/2009 14:10,1.3,3.7
172,8/1/2009 14:15,0.9,2.6
173,8/1/2009 14:20,1.5,3.3
174,8/1/2009 14:25,2.6,5.6
175,8/1/2009 14:30,2.6,4.3
176,8/1/2009 14:35,1.7,4.3
177,8/1/2009 14:40,1.1,2.2
178,8/1/2009 14:45,1.9,4.5
179,8/1/2009 14:50,1.9,4.5
180,8/1/2009 14:55,2.6,4.5
181,8/1/2009 15:00,2.8,4.3
182,8/1/2009 15:05,0.9,4.1
183,8/1/2009 15:10,0.9,3
184,8/1/2009 15:15,0.9,2
185,8/1/2009 15:20,1.3,3
186,8/1/2009 15:25,0.7,1.7
187,8/1/2009 15:30,1.9,3.9
188,8/1/2009 15:35,2.4,4.5
189,8/1/2009 15:40,2,4.3
190,8/1/2009 15:45,1.7,3
191,8/1/2009 15:50,1.1,2.2
192,8/1/2009 15:55,0.6,1.3
193,8/1/2009 16:00,0.7,2
194,8/1/2009 16:05,1.3,2.6
195,8/1/2009 16:10,1.1,2.2
196,8/1/2009 16:15,1.3,3.3
197,8/1/2009 16:20,0.9,2.6
198,8/1/2009 16:25,0.7,2
199,8/1/2009 16:30,0.9,2.6
200,8/1/2009 16:35,1.1,2
201,8/1/2009 16:40,0.4,1.1
202,8/1/2009 16:45,0.7,3
203,8/1/2009 16:50,0.9,2.4
204,8/1/2009 16:55,1.3,3
205,8/1/2009 17:00,1.7,3.2
206,8/1/2009 17:05,0.9,2.6
207,8/1/2009 17:10,2,3.5
208,8/1/2009 17:15,2.6,4.1
209,8/1/2009 17:20,2.2,3.5
210,8/1/2009 17:25,1.9,3.5
211,8/1/2009 17:30,1.5,2.6
212,8/1/2009 17:35,0.9,2.8
213,8/1/2009 17:40,1.3,2.8
214,8/1/2009 17:45,0.9,2
215,8/1/2009 17:50,1.1,2.8
216,8/1/2009 17:55,1.3,2.6
217,8/1/2009 18:00,1.9,2.4
218,8/1/2009 18:05,1.7,2.6
219,8/1/2009 18:10,1.7,3.2
220,8/1/2009 18:15,0.9,1.9
221,8/1/2009 18:20,0.9,1.5
222,8/1/2009 18:25,0.9,2
223,8/1/2009 18:30,0.9,2.4
224,8/1/2009 18:35,1.1,2.6
225,8/1/2009 18:40,0.6,2.4
226,8/1/2009 18:45,0.9,2.8
227,8/1/2009 18:50,1.3,2.6
228,8/1/2009 18:55,1.1,1.9
229,8/1/2009 19:00,0.7,1.7
230,8/1/2009 19:05,1.1,2.2
231,8/1/2009 19:10,1.1,1.7
232,8/1/2009 19:15,0.9,2.2
233,8/1/2009 19:20,0.7,1.9
234,8/1/2009 19:25,0.6,1.3
235,8/1/2009 19:30,0.4,0.9
236,8/1/2009 19:35,0.2,0.7
237,8/1/2009 19:40,0.2,0.7
238,8/1/2009 19:45,0.2,0.7
239,8/1/2009 19:50,1.3,3.5
240,8/1/2009 19:55,1.1,3.7
241,8/1/2009 20:00,1.7,3.7
242,8/1/2009 20:05,2,5
243,8/1/2009 20:10,2.4,4.6
244,8/1/2009 20:15,2.2,5.2
245,8/1/2009 20:20,2,4.1
246,8/1/2009 20:25,2,4.1
247,8/1/2009 20:30,1.7,3.7
248,8/1/2009 20:35,1.3,3
249,8/1/2009 20:40,2,4.3
250,8/1/2009 20:45,1.5,3.3
251,8/1/2009 20:50,2,3.5
252,8/1/2009 20:55,1.7,3.3
253,8/1/2009 21:00,1.9,4.3
254,8/1/2009 21:05,1.7,3.9
255,8/1/2009 21:10,1.5,3.2
256,8/1/2009 21:15,1.9,4.5
257,8/1/2009 21:20,1.5,2.8
258,8/1/2009 21:25,1.1,2.8
259,8/1/2009 21:30,1.3,2.6
260,8/1/2009 21:35,1.5,4.1
261,8/1/2009 21:40,1.5,2.6
262,8/1/2009 21:45,1.1,3.7
263,8/1/2009 21:50,1.1,2.4
264,8/1/2009 21:55,1.5,3.3
265,8/1/2009 22:00,1.5,3.9
266,8/1/2009 22:05,2,3.9
267,8/1/2009 22:10,1.5,3.5
268,8/1/2009 22:15,1.7,3.3
269,8/1/2009 22:20,1.9,4.3
270,8/1/2009 22:25,2,4.1
271,8/1/2009 22:30,1.5,3
272,8/1/2009 22:35,1.1,2.2
273,8/1/2009 22:40,1.3,3
274,8/1/2009 22:45,0.9,2.8
275,8/1/2009 22:50,1.9,3.5
276,8/1/2009 22:55,1.7,4.3
277,8/1/2009 23:00,1.7,3
278,8/1/2009 23:05,2.2,3.9
279,8/1/2009 23:10,0.7,2
280,8/1/2009 23:15,1.5,3.3
281,8/1/2009 23:20,1.1,2.6
282,8/1/2009 23:25,0.9,2
283,8/1/2009 23:30,1.5,2.6
284,8/1/2009 23:35,1.5,3
285,8/1/2009 23:40,0.7,1.9
286,8/1/2009 23:45,1.3,3.5
287,8/1/2009 23:50,1.7,3
288,8/1/2009 23:55,2.2,4.5
289,8/2/2009 0:00,1.3,3
290,8/2/2009 0:05,1.1,2.6
291,8/2/2009 0:10,0.6,1.7
292,8/2/2009 0:15,0.6,2
293,8/2/2009 0:20,0.6,1.1
294,8/2/2009 0:25,0.6,1.5
295,8/2/2009 0:30,0.9,1.9
296,8/2/2009 0:35,1.5,2.4
297,8/2/2009 0:40,1.1,2.6
298,8/2/2009 0:45,1.9,3.7
299,8/2/2009 0:50,1.7,3
300,8/2/2009 0:55,0.9,3
301,8/2/2009 1:00,0.7,1.7
302,8/2/2009 1:05,0.4,1.3
303,8/2/2009 1:10,1.1,2
304,8/2/2009 1:15,0.9,2
305,8/2/2009 1:20,1.3,2.4
306,8/2/2009 1:25,1.1,2.2
307,8/2/2009 1:30,0.7,2.2
308,8/2/2009 1:35,1.5,3
309,8/2/2009 1:40,1.1,2
310,8/2/2009 1:45,0.9,2.6
311,8/2/2009 1:50,0.6,1.5
312,8/2/2009 1:55,0.9,2.4
313,8/2/2009 2:00,1.1,2
314,8/2/2009 2:05,0.9,2.2
315,8/2/2009 2:10,0.2,0.7
316,8/2/2009 2:15,0.6,1.9
317,8/2/2009 2:20,0.7,2.6
318,8/2/2009 2:25,1.5,3.2
319,8/2/2009 2:30,1.7,3
320,8/2/2009 2:35,0.6,1.9
321,8/2/2009 2:40,0.6,2
322,8/2/2009 2:45,0.4,1.1
323,8/2/2009 2:50,0.4,1.1
324,8/2/2009 2:55,0.7,1.7
325,8/2/2009 3:00,0.2,0.9
326,8/2/2009 3:05,0.4,1.1
327,8/2/2009 3:10,0.2,0.6
328,8/2/2009 3:15,0.6,1.7
329,8/2/2009 3:20,0.4,0.9
330,8/2/2009 3:25,0.4,0.9
331,8/2/2009 3:30,0.7,2
332,8/2/2009 3:35,0.4,1.5
333,8/2/2009 3:40,0.6,1.1
334,8/2/2009 3:45,0.6,2.2
335,8/2/2009 3:50,0.6,1.9
336,8/2/2009 3:55,1.3,2.8
337,8/2/2009 4:00,0.7,2
338,8/2/2009 4:05,0.4,1.9
339,8/2/2009 4:10,0.9,2.6
340,8/2/2009 4:15,0.9,2
341,8/2/2009 4:20,0.7,1.9
342,8/2/2009 4:25,1.1,2.2
343,8/2/2009 4:30,0.9,2.4
344,8/2/2009 4:35,0.9,1.9
345,8/2/2009 4:40,0.2,0.7
346,8/2/2009 4:45,0.2,0.9
347,8/2/2009 4:50,0.7,1.7
348,8/2/2009 4:55,0.6,1.5
349,8/2/2009 5:00,0.6,1.1
350,8/2/2009 5:05,0.7,1.7
351,8/2/2009 5:10,1.1,2.8
352,8/2/2009 5:15,0.7,2.2
353,8/2/2009 5:20,0.6,1.7
354,8/2/2009 5:25,1.3,2.4
355,8/2/2009 5:30,0.9,2.2
356,8/2/2009 5:35,0.4,1.3
357,8/2/2009 5:40,0.7,2
358,8/2/2009 5:45,1.3,2.6
359,8/2/2009 5:50,0.9,3.2
360,8/2/2009 5:55,1.5,3
361,8/2/2009 6:00,2,4.1
362,8/2/2009 6:05,2.4,4.6
363,8/2/2009 6:10,1.7,3.9
364,8/2/2009 6:15,0.9,3.2
365,8/2/2009 6:20,1.5,3.7
366,8/2/2009 6:25,1.1,2.2
367,8/2/2009 6:30,1.9,3.3
368,8/2/2009 6:35,2,4.3
369,8/2/2009 6:40,0.9,2.6
370,8/2/2009 6:45,1.5,2.6
371,8/2/2009 6:50,1.7,3
372,8/2/2009 6:55,1.3,2.6
373,8/2/2009 7:00,1.5,3.9
374,8/2/2009 7:05,2,3.9
375,8/2/2009 7:10,1.9,3.9
376,8/2/2009 7:15,1.5,3.3
377,8/2/2009 7:20,1.3,3
378,8/2/2009 7:25,1.1,4.1
379,8/2/2009 7:30,1.5,3.5
380,8/2/2009 7:35,1.3,3.3
381,8/2/2009 7:40,1.5,3.2
382,8/2/2009 7:45,1.7,3
383,8/2/2009 7:50,0.9,2.8
384,8/2/2009 7:55,1.3,2.4
385,8/2/2009 8:00,1.9,4.1
386,8/2/2009 8:05,1.5,2.8
387,8/2/2009 8:10,1.5,3.3
388,8/2/2009 8:15,2,3.2
389,8/2/2009 8:20,1.9,3.5
390,8/2/2009 8:25,0.9,1.9
391,8/2/2009 8:30,1.5,3.2
392,8/2/2009 8:35,0.6,1.7
393,8/2/2009 8:40,1.7,3.2
394,8/2/2009 8:45,1.3,2.4
395,8/2/2009 8:50,1.1,3.7
396,8/2/2009 8:55,0.7,2.2
397,8/2/2009 9:00,1.5,3.7
398,8/2/2009 9:05,1.7,3.5
399,8/2/2009 9:10,1.5,3
400,8/2/2009 9:15,1.5,3.2
401,8/2/2009 9:20,1.5,3
402,8/2/2009 9:25,2.4,5.2
403,8/2/2009 9:30,1.5,3.3
404,8/2/2009 9:35,1.1,2.8
405,8/2/2009 9:40,1.5,3.5
406,8/2/2009 9:45,1.5,3.9
407,8/2/2009 9:50,2,4.3
408,8/2/2009 9:55,1.3,2.6
409,8/2/2009 10:00,2,3.7
410,8/2/2009 10:05,1.7,3.5
411,8/2/2009 10:10,1.7,3.5
412,8/2/2009 10:15,2,3.9
413,8/2/2009 10:20,1.7,3.5
414,8/2/2009 10:25,1.5,3.7
415,8/2/2009 10:30,1.5,3.9
416,8/2/2009 10:35,1.5,3.7
417,8/2/2009 10:40,0.9,3.3
418,8/2/2009 10:45,1.9,4.3
419,8/2/2009 10:50,1.7,3.5
420,8/2/2009 10:55,1.3,3.5
421,8/2/2009 11:00,1.5,3.2
422,8/2/2009 11:05,1.9,4.8
423,8/2/2009 11:10,1.5,4.3
424,8/2/2009 11:15,1.9,3.5
425,8/2/2009 11:20,2.2,4.6
426,8/2/2009 11:25,2.2,4.1
427,8/2/2009 11:30,1.7,4.5
428,8/2/2009 11:35,1.9,3.9
429,8/2/2009 11:40,1.7,3.3
430,8/2/2009 11:45,1.1,3
431,8/2/2009 11:50,1.3,2.6
432,8/2/2009 11:55,0.9,2
433,8/2/2009 12:00,1.5,4.3
434,8/2/2009 12:05,1.3,3.2
435,8/2/2009 12:10,1.9,3.9
436,8/2/2009 12:15,1.7,3.5
437,8/2/2009 12:20,1.7,3.9
438,8/2/2009 12:25,2.2,4.5
439,8/2/2009 12:30,1.1,2.6
440,8/2/2009 12:35,1.5,3.9
441,8/2/2009 12:40,2,4.8
442,8/2/2009 12:45,1.9,4.1
443,8/2/2009 12:50,2,4.6
444,8/2/2009 12:55,1.9,3.9
445,8/2/2009 13:00,1.9,4.5
446,8/2/2009 13:05,1.3,3.3
447,8/2/2009 13:10,1.5,3.2
448,8/2/2009 13:15,1.9,4.6
449,8/2/2009 13:20,1.5,4.1
450,8/2/2009 13:25,1.1,2.8
451,8/2/2009 13:30,0.9,2.2
452,8/2/2009 13:35,0.9,2.6
453,8/2/2009 13:40,1.5,3.7
454,8/2/2009 13:45,1.5,3.2
455,8/2/2009 13:50,1.5,3.5
456,8/2/2009 13:55,1.1,3
457,8/2/2009 14:00,1.1,3
458,8/2/2009 14:05,1.3,3.2
459,8/2/2009 14:10,1.1,3
460,8/2/2009 14:15,1.3,3.2
461,8/2/2009 14:20,1.5,3.9
462,8/2/2009 14:25,1.3,3.5
463,8/2/2009 14:30,1.3,3.3
464,8/2/2009 14:35,0.9,2.2
465,8/2/2009 14:40,1.9,4.6
466,8/2/2009 14:45,2.4,3.9
467,8/2/2009 14:50,1.7,3.7
468,8/2/2009 14:55,0.9,2.4
469,8/2/2009 15:00,1.7,3.7
470,8/2/2009 15:05,1.3,2.4
471,8/2/2009 15:10,0.9,2
472,8/2/2009 15:15,1.1,3.5
473,8/2/2009 15:20,2.2,4.5
474,8/2/2009 15:25,2.4,5
475,8/2/2009 15:30,1.7,5
476,8/2/2009 15:35,1.5,3.2
477,8/2/2009 15:40,1.3,2.8
478,8/2/2009 15:45,1.5,4.1
479,8/2/2009 15:50,1.1,3.5
480,8/2/2009 15:55,1.7,3.9
481,8/2/2009 16:00,2.4,4.5
482,8/2/2009 16:05,2.2,4.3
483,8/2/2009 16:10,1.7,4.1
484,8/2/2009 16:15,1.3,2.6
485,8/2/2009 16:20,1.3,3.7
486,8/2/2009 16:25,1.7,3.3
487,8/2/2009 16:30,2,4.1
488,8/2/2009 16:35,2,4.6
489,8/2/2009 16:40,1.3,4.1
490,8/2/2009 16:45,1.5,3.3
491,8/2/2009 16:50,1.1,2.4
492,8/2/2009 16:55,0.4,1.1
493,8/2/2009 17:00,0.6,1.9
494,8/2/2009 17:05,0.7,2.4
495,8/2/2009 17:10,0.7,1.7
496,8/2/2009 17:15,1.1,2.2
497,8/2/2009 17:20,0.7,2.6
498,8/2/2009 17:25,1.1,2.4
499,8/2/2009 17:30,0.7,1.9
500,8/2/2009 17:35,0.9,2.2
501,8/2/2009 17:40,0.9,2.4
502,8/2/2009 17:45,0.9,2.6
503,8/2/2009 17:50,0.9,2.4
504,8/2/2009 17:55,0.7,2
505,8/2/2009 18:00,0.7,2
506,8/2/2009 18:05,0.7,2.2
507,8/2/2009 18:10,0.6,2.2
508,8/2/2009 18:15,0.6,1.5
509,8/2/2009 18:20,0.7,1.9
510,8/2/2009 18:25,0.6,1.1
511,8/2/2009 18:30,0.7,2.2
512,8/2/2009 18:35,1.1,3.3
513,8/2/2009 18:40,1.1,2.8
514,8/2/2009 18:45,0.9,2.6
515,8/2/2009 18:50,0.6,1.5
516,8/2/2009 18:55,1.1,3.2
517,8/2/2009 19:00,1.1,2.4
518,8/2/2009 19:05,1.1,2.2
519,8/2/2009 19:10,0.6,1.3
520,8/2/2009 19:15,0.7,1.9
521,8/2/2009 19:20,0.7,2.8
522,8/2/2009 19:25,0.9,2.8
523,8/2/2009 19:30,0.7,2.6
524,8/2/2009 19:35,0.7,2.2
525,8/2/2009 19:40,1.3,2.8
526,8/2/2009 19:45,1.7,3.7
527,8/2/2009 19:50,0.9,2.8
528,8/2/2009 19:55,0.7,2.4
529,8/2/2009 20:00,1.3,3
530,8/2/2009 20:05,2.4,3.9
531,8/2/2009 20:10,2.8,5
532,8/2/2009 20:15,2.6,5
533,8/2/2009 20:20,2.2,3.9
534,8/2/2009 20:25,1.9,4.3
535,8/2/2009 20:30,1.7,4.3
536,8/2/2009 20:35,2,3.9
537,8/2/2009 20:40,1.5,3.9
538,8/2/2009 20:45,1.5,3.3
539,8/2/2009 20:50,2,3.9
540,8/2/2009 20:55,1.3,3
541,8/2/2009 21:00,1.9,3.5
542,8/2/2009 21:05,0.9,2
543,8/2/2009 21:10,1.3,3
544,8/2/2009 21:15,1.9,3.9
545,8/2/2009 21:20,1.3,3
546,8/2/2009 21:25,2,4.3
547,8/2/2009 21:30,2.4,4.1
548,8/2/2009 21:35,2.2,4.1
549,8/2/2009 21:40,1.5,4.5
550,8/2/2009 21:45,1.7,3.3
551,8/2/2009 21:50,1.9,3.9
552,8/2/2009 21:55,2,4.8
553,8/2/2009 22:00,1.3,2.8
554,8/2/2009 22:05,1.3,3.2
555,8/2/2009 22:10,1.1,3.2
556,8/2/2009 22:15,1.1,3
557,8/2/2009 22:20,1.1,3
558,8/2/2009 22:25,1.1,3.3
559,8/2/2009 22:30,1.7,3.5
560,8/2/2009 22:35,1.7,3.2
561,8/2/2009 22:40,1.3,2.6
562,8/2/2009 22:45,1.3,2.8
563,8/2/2009 22:50,1.3,2.6
564,8/2/2009 22:55,1.7,3.3
565,8/2/2009 23:00,1.1,2.4
566,8/2/2009 23:05,1.5,3.2
567,8/2/2009 23:10,1.3,2.8
568,8/2/2009 23:15,1.1,3.2
569,8/2/2009 23:20,1.1,2.2
570,8/2/2009 23:25,1.7,3.3
571,8/2/2009 23:30,2.2,4.8
572,8/2/2009 23:35,1.7,3.3
573,8/2/2009 23:40,1.7,4.3
574,8/2/2009 23:45,1.7,3.2
575,8/2/2009 23:50,1.1,2.4
576,8/2/2009 23:55,1.5,3.3
577,8/3/2009 0:00,1.7,3.9
578,8/3/2009 0:05,1.5,3
579,8/3/2009 0:10,1.7,4.1
580,8/3/2009 0:15,1.1,2.6
581,8/3/2009 0:20,1.7,4.3
582,8/3/2009 0:25,1.9,3.3
583,8/3/2009 0:30,1.7,4.1
584,8/3/2009 0:35,1.7,3.3
585,8/3/2009 0:40,1.5,3.2
586,8/3/2009 0:45,1.5,3.2
587,8/3/2009 0:50,1.3,3.3
588,8/3/2009 0:55,1.5,3.2
589,8/3/2009 1:00,1.7,3.9
590,8/3/2009 1:05,1.3,2.6
591,8/3/2009 1:10,1.5,4.5
592,8/3/2009 1:15,2,4.3
593,8/3/2009 1:20,1.7,4.1
594,8/3/2009 1:25,1.1,2.6
595,8/3/2009 1:30,1.3,4.1
596,8/3/2009 1:35,1.3,4.1
597,8/3/2009 1:40,1.3,3.5
598,8/3/2009 1:45,1.5,3.5
599,8/3/2009 1:50,1.3,3
600,8/3/2009 1:55,1.3,3
601,8/3/2009 2:00,1.7,4.5
602,8/3/2009 2:05,1.5,3.7
603,8/3/2009 2:10,1.5,3.2
604,8/3/2009 2:15,1.5,2.8
605,8/3/2009 2:20,1.9,3.9
606,8/3/2009 2:25,1.5,4.1
607,8/3/2009 2:30,1.5,4.1
608,8/3/2009 2:35,1.7,3
609,8/3/2009 2:40,1.3,3.3
610,8/3/2009 2:45,0.9,2.8
611,8/3/2009 2:50,0.9,2.8
612,8/3/2009 2:55,1.1,2.6
613,8/3/2009 3:00,1.1,3
614,8/3/2009 3:05,1.3,2.8
615,8/3/2009 3:10,1.1,2.4
616,8/3/2009 3:15,0.9,2.6
617,8/3/2009 3:20,1.1,2.6
618,8/3/2009 3:25,0.6,1.9
619,8/3/2009 3:30,0.9,2
620,8/3/2009 3:35,1.3,2.4
621,8/3/2009 3:40,1.5,2.8
622,8/3/2009 3:45,1.1,2.2
623,8/3/2009 3:50,1.3,2.6
624,8/3/2009 3:55,1.5,3
625,8/3/2009 4:00,1.7,3
626,8/3/2009 4:05,1.1,2.8
627,8/3/2009 4:10,1.7,3
628,8/3/2009 4:15,1.1,2.8
629,8/3/2009 4:20,1.3,2.4
630,8/3/2009 4:25,1.3,2.6
631,8/3/2009 4:30,0.9,2.2
632,8/3/2009 4:35,1.1,2.2
633,8/3/2009 4:40,1.5,4.1
634,8/3/2009 4:45,1.3,2.6
635,8/3/2009 4:50,0.9,2
636,8/3/2009 4:55,0.7,2
637,8/3/2009 5:00,1.1,2.6
638,8/3/2009 5:05,1.3,3.7
639,8/3/2009 5:10,1.3,2.8
640,8/3/2009 5:15,1.1,2.4
641,8/3/2009 5:20,0.9,1.9
642,8/3/2009 5:25,0.7,2.4
643,8/3/2009 5:30,1.1,2.2
644,8/3/2009 5:35,1.5,2.2
645,8/3/2009 5:40,1.1,2
646,8/3/2009 5:45,1.1,2.2
647,8/3/2009 5:50,0.6,1.7
648,8/3/2009 5:55,1.1,2.2
649,8/3/2009 6:00,1.7,2.8
650,8/3/2009 6:05,1.7,3
651,8/3/2009 6:10,1.1,2.4
652,8/3/2009 6:15,0.7,2
653,8/3/2009 6:20,0.6,1.7
654,8/3/2009 6:25,0.6,1.5
655,8/3/2009 6:30,0.7,1.7
656,8/3/2009 6:35,0.7,1.9
657,8/3/2009 6:40,0.9,1.9
658,8/3/2009 6:45,0.4,0.9
659,8/3/2009 6:50,0.9,3
660,8/3/2009 6:55,1.3,2.4
661,8/3/2009 7:00,0.6,1.5
662,8/3/2009 7:05,0.9,2.4
663,8/3/2009 7:10,1.1,2.4
664,8/3/2009 7:15,1.7,2.6
665,8/3/2009 7:20,0.9,2.2
666,8/3/2009 7:25,1.7,3
667,8/3/2009 7:30,1.3,2.2
668,8/3/2009 7:35,1.1,2.4
669,8/3/2009 7:40,0.9,1.9
670,8/3/2009 7:45,2.2,3
671,8/3/2009 7:50,1.9,3.2
672,8/3/2009 7:55,1.1,2.6
673,8/3/2009 8:00,1.5,3
674,8/3/2009 8:05,1.5,3.5
675,8/3/2009 8:10,1.1,2.2
676,8/3/2009 8:15,1.7,3.2
677,8/3/2009 8:20,1.3,3
678,8/3/2009 8:25,1.1,3.2
679,8/3/2009 8:30,1.9,3.7
680,8/3/2009 8:35,2.2,4.3
681,8/3/2009 8:40,3.2,5.9
682,8/3/2009 8:45,3.3,5
683,8/3/2009 8:50,2.2,4.1
684,8/3/2009 8:55,3.3,5
685,8/3/2009 9:00,2.8,4.1
686,8/3/2009 9:05,3,5
687,8/3/2009 9:10,3,4.3
688,8/3/2009 9:15,3.2,4.6
689,8/3/2009 9:20,2.6,4.5
690,8/3/2009 9:25,2.6,4.3
691,8/3/2009 9:30,1.9,3.3
692,8/3/2009 9:35,1.9,3.5
693,8/3/2009 9:40,2.4,3.7
694,8/3/2009 9:45,1.3,4.5
695,8/3/2009 9:50,3.2,5.2
696,8/3/2009 9:55,1.3,2.6
697,8/3/2009 10:00,1.7,3.7
698,8/3/2009 10:05,1.5,3
699,8/3/2009 10:10,1.9,3.3
700,8/3/2009 10:15,1.5,4.3
701,8/3/2009 10:20,2.4,4.3
702,8/3/2009 10:25,1.9,3.7
703,8/3/2009 10:30,1.1,3.3
704,8/3/2009 10:35,1.5,3.3
705,8/3/2009 10:40,2,3.9
706,8/3/2009 10:45,1.9,2.8
707,8/3/2009 10:50,1.7,3.3
708,8/3/2009 10:55,1.9,4.1
709,8/3/2009 11:00,2.6,4.6
710,8/3/2009 11:05,2.8,4.3
711,8/3/2009 11:10,2.2,3.7
712,8/3/2009 11:15,1.1,3.7
713,8/3/2009 11:20,2.4,4.8
714,8/3/2009 11:25,1.3,2.6
715,8/3/2009 11:30,1.7,3.2
716,8/3/2009 11:35,2,3.9
717,8/3/2009 11:40,2.2,3.7
718,8/3/2009 11:45,0.9,1.9
719,8/3/2009 11:50,2.2,4.6
720,8/3/2009 11:55,3,4.8
721,8/3/2009 12:00,1.7,3.7
722,8/3/2009 12:05,2.4,3.9
723,8/3/2009 12:10,1.9,4.1
724,8/3/2009 12:15,1.3,3.3
725,8/3/2009 12:20,3,5.2
726,8/3/2009 12:25,1.1,2.8
727,8/3/2009 12:30,1.7,4.6
728,8/3/2009 12:35,1.7,3.5
729,8/3/2009 12:40,1.5,3.7
730,8/3/2009 12:45,1.1,3
731,8/3/2009 12:50,1.1,3.2
732,8/3/2009 12:55,2.4,5
733,8/3/2009 13:00,2,5.6
734,8/3/2009 13:05,2.6,5
735,8/3/2009 13:10,3,5
736,8/3/2009 13:15,2.4,4.8
737,8/3/2009 13:20,2.2,4.6
738,8/3/2009 13:25,2.4,4.5
739,8/3/2009 13:30,3.5,5.9
740,8/3/2009 13:35,2.2,4.8
741,8/3/2009 13:40,1.3,3.2
742,8/3/2009 13:45,1.1,3.3
743,8/3/2009 13:50,0.6,1.3
744,8/3/2009 13:55,0.9,1.7
745,8/3/2009 14:00,2.2,5.6
746,8/3/2009 14:05,2,4.8
747,8/3/2009 14:10,2,4.6
748,8/3/2009 14:15,1.5,3.9
749,8/3/2009 14:20,1.7,3
750,8/3/2009 14:25,1.7,3.7
751,8/3/2009 14:30,1.5,3.9
752,8/3/2009 14:35,1.7,4.1
753,8/3/2009 14:40,2.2,4.3
754,8/3/2009 14:45,1.5,4.1
755,8/3/2009 14:50,1.7,3.9
756,8/3/2009 14:55,1.7,3.9
757,8/3/2009 15:00,0.7,2.2
758,8/3/2009 15:05,2.2,4.6
759,8/3/2009 15:10,3.2,5.6
760,8/3/2009 15:15,2.4,5.9
761,8/3/2009 15:20,2,5
762,8/3/2009 15:25,1.1,3.9
763,8/3/2009 15:30,2,4.8
764,8/3/2009 15:35,2.2,4.5
765,8/3/2009 15:40,0.9,2.2
766,8/3/2009 15:45,1.7,4.8
767,8/3/2009 15:50,1.3,3.9
768,8/3/2009 15:55,1.7,4.3
769,8/3/2009 16:00,1.1,3
770,8/3/2009 16:05,1.1,2.4
771,8/3/2009 16:10,1.5,3.5
772,8/3/2009 16:15,0.9,2.4
773,8/3/2009 16:20,1.3,3
774,8/3/2009 16:25,2,3.5
775,8/3/2009 16:30,1.7,2.8
776,8/3/2009 16:35,2.2,3.5
777,8/3/2009 16:40,1.9,3.7
778,8/3/2009 16:45,2.8,4.5
779,8/3/2009 16:50,3,5.2
780,8/3/2009 16:55,2.4,3.7
781,8/3/2009 17:00,2.4,4.5
782,8/3/2009 17:05,2.4,4.5
783,8/3/2009 17:10,2.4,4.6
784,8/3/2009 17:15,2.4,3.7
785,8/3/2009 17:20,2.6,4.6
786,8/3/2009 17:25,2.8,4.5
787,8/3/2009 17:30,2.8,4.5
788,8/3/2009 17:35,3,4.5
789,8/3/2009 17:40,2.6,4.3
790,8/3/2009 17:45,2.6,4.1
791,8/3/2009 17:50,2.2,3.7
792,8/3/2009 17:55,1.9,3
793,8/3/2009 18:00,2.2,3.7
794,8/3/2009 18:05,1.9,3.3
795,8/3/2009 18:10,2.6,3.7
796,8/3/2009 18:15,2.2,4.1
797,8/3/2009 18:20,2.8,4.3
798,8/3/2009 18:25,2.2,3.3
799,8/3/2009 18:30,1.9,3.3
800,8/3/2009 18:35,2,3
801,8/3/2009 18:40,2.6,4.3
802,8/3/2009 18:45,2,3.2
803,8/3/2009 18:50,2.2,3.7
804,8/3/2009 18:55,1.7,3
805,8/3/2009 19:00,1.5,2.6
806,8/3/2009 19:05,1.7,3
807,8/3/2009 19:10,1.7,3.3
808,8/3/2009 19:15,1.7,3.2
809,8/3/2009 19:20,1.5,2.8
810,8/3/2009 19:25,1.1,2
811,8/3/2009 19:30,1.5,2.4
812,8/3/2009 19:35,1.5,2.2
813,8/3/2009 19:40,1.1,3.2
814,8/3/2009 19:45,1.9,3
815,8/3/2009 19:50,1.7,3.3
816,8/3/2009 19:55,1.9,3.2
817,8/3/2009 20:00,1.3,2
818,8/3/2009 20:05,1.3,2
819,8/3/2009 20:10,0.9,1.5
820,8/3/2009 20:15,1.1,1.7
821,8/3/2009 20:20,1.1,2
822,8/3/2009 20:25,0.9,1.7
823,8/3/2009 20:30,0.9,1.5
824,8/3/2009 20:35,0.6,1.5
825,8/3/2009 20:40,0.7,2
826,8/3/2009 20:45,1.7,2.6
827,8/3/2009 20:50,1.1,1.7
828,8/3/2009 20:55,0.9,1.5
829,8/3/2009 21:00,1.1,1.7
830,8/3/2009 21:05,1.1,1.7
831,8/3/2009 21:10,1.3,1.9
832,8/3/2009 21:15,0.9,1.7
833,8/3/2009 21:20,0.7,1.3
834,8/3/2009 21:25,0.7,1.3
835,8/3/2009 21:30,0.7,1.3
836,8/3/2009 21:35,1.1,1.5
837,8/3/2009 21:40,0.9,1.3
838,8/3/2009 21:45,1.1,1.7
839,8/3/2009 21:50,0.9,1.7
840,8/3/2009 21:55,0.9,1.3
841,8/3/2009 22:00,0.7,1.1
842,8/3/2009 22:05,0.7,1.1
843,8/3/2009 22:10,0.7,1.1
844,8/3/2009 22:15,0.4,0.9
845,8/3/2009 22:20,0.4,0.9
846,8/3/2009 22:25,0.6,0.9
847,8/3/2009 22:30,0.2,0.6
848,8/3/2009 22:35,0.4,0.6
849,8/3/2009 22:40,0.4,0.7
850,8/3/2009 22:45,0.6,1.1
851,8/3/2009 22:50,0,0.4
852,8/3/2009 22:55,0,0.2
853,8/3/2009 23:00,0,0.4
854,8/3/2009 23:05,0,0.4
855,8/3/2009 23:10,0,0.7
856,8/3/2009 23:15,0.2,0.9
857,8/3/2009 23:20,0.4,1.3
858,8/3/2009 23:25,0.2,0.6
859,8/3/2009 23:30,0.2,1.1
860,8/3/2009 23:35,0.7,1.5
861,8/3/2009 23:40,0.4,1.1
862,8/3/2009 23:45,0.6,1.5
863,8/3/2009 23:50,0.7,2
864,8/3/2009 23:55,0.4,1.1
865,8/4/2009 0:00,0.7,1.5
866,8/4/2009 0:05,0.9,2.4
867,8/4/2009 0:10,0.6,1.9
868,8/4/2009 0:15,0.7,2.6
869,8/4/2009 0:20,0.7,1.7
870,8/4/2009 0:25,0.9,2.2
871,8/4/2009 0:30,1.1,2.8
872,8/4/2009 0:35,0.6,1.7
873,8/4/2009 0:40,1.3,2.4
874,8/4/2009 0:45,1.1,2.4
875,8/4/2009 0:50,1.5,3.2
876,8/4/2009 0:55,1.3,2.4
877,8/4/2009 1:00,0.9,2.2
878,8/4/2009 1:05,0.9,2.6
879,8/4/2009 1:10,1.1,2.8
880,8/4/2009 1:15,0.7,2.4
881,8/4/2009 1:20,0.9,2.2
882,8/4/2009 1:25,1.1,2.6
883,8/4/2009 1:30,1.1,2.2
884,8/4/2009 1:35,0.6,1.9
885,8/4/2009 1:40,0.9,2.4